Time,TemperatureF,DewpointF,PressureIn,WindDirection,WindDirectionDegrees,WindSpeedMPH,WindSpeedGustMPH,Humidity,HourlyPrecipIn,Conditions,Clouds,dailyrainin,SolarRadiationWatts/m^2,SoftwareType,DateUTC
2013-03-04 00:02:00,54.7,22.3,29.59,SSW,201,4.0,10.0,28,0.00,,,0.00,0.0,meteohub,2013-03-04 07:02:00,
2013-03-04 00:07:00,54.7,21.4,29.59,SW,225,5.0,10.0,27,0.00,,,0.00,0.0,meteohub,2013-03-04 07:07:00,
2013-03-04 00:12:00,54.9,21.6,29.59,SW,221,10.0,10.0,27,0.00,,,0.00,0.0,meteohub,2013-03-04 07:12:00,
2013-03-04 00:17:00,54.9,20.7,29.59,SSW,194,6.0,10.0,26,0.00,,,0.00,0.0,meteohub,2013-03-04 07:17:00,
2013-03-04 00:22:00,54.9,21.6,29.59,SSW,213,4.0,11.0,27,0.00,,,0.00,0.0,meteohub,2013-03-04 07:22:00,
2013-03-04 00:27:00,54.7,21.4,29.59,SW,215,11.0,11.0,27,0.00,,,0.00,0.0,meteohub,2013-03-04 07:27:00,
2013-03-04 00:32:00,54.7,20.5,29.59,South,190,4.0,11.0,26,0.00,,,0.00,0.0,meteohub,2013-03-04 07:32:00,
2013-03-04 00:42:00,54.5,20.3,29.59,SW,220,7.0,13.0,26,0.00,,,0.00,0.0,meteohub,2013-03-04 07:42:00,
2013-03-04 00:47:00,54.5,20.3,29.59,SSW,209,1.0,13.0,26,0.00,,,0.00,0.0,meteohub,2013-03-04 07:47:00,
2013-03-04 00:52:00,54.3,20.1,29.59,SSW,211,6.0,13.0,26,0.00,,,0.00,0.0,meteohub,2013-03-04 07:52:00,
2013-03-04 00:57:00,54.3,20.1,29.59,SSW,194,4.0,9.0,26,0.00,,,0.00,0.0,meteohub,2013-03-04 07:57:00,
2013-03-04 01:02:00,54.7,19.6,29.59,SSW,213,5.0,8.0,25,0.00,,,0.00,0.0,meteohub,2013-03-04 08:02:00,
2013-03-04 01:07:00,54.7,19.6,29.59,SSW,209,5.0,10.0,25,0.00,,,0.00,0.0,meteohub,2013-03-04 08:07:00,
2013-03-04 01:12:00,54.7,19.6,29.59,SSW,193,4.0,11.0,25,0.00,,,0.00,0.0,meteohub,2013-03-04 08:12:00,
2013-03-04 01:17:00,54.5,19.4,29.59,SSW,209,3.0,11.0,25,0.00,,,0.00,0.0,meteohub,2013-03-04 08:17:00,
2013-03-04 01:22:00,54.3,19.2,29.59,SW,234,4.0,10.0,25,0.00,,,0.00,0.0,meteohub,2013-03-04 08:22:00,
2013-03-04 01:27:00,54.3,19.2,29.59,WSW,244,4.0,13.0,25,0.00,,,0.00,0.0,meteohub,2013-03-04 08:27:00,
2013-03-04 01:32:00,54.5,18.5,29.58,SW,214,7.0,13.0,24,0.00,,,0.00,0.0,meteohub,2013-03-04 08:32:00,
2013-03-04 01:37:00,54.7,18.5,29.58,SW,215,7.0,13.0,24,0.00,,,0.00,0.0,meteohub,2013-03-04 08:37:00,
2013-03-04 01:42:00,54.5,18.5,29.58,SW,229,5.0,13.0,24,0.00,,,0.00,0.0,meteohub,2013-03-04 08:42:00,
2013-03-04 01:47:00,54.3,19.2,29.58,SSW,210,4.0,13.0,25,0.00,,,0.00,0.0,meteohub,2013-03-04 08:47:00,
2013-03-04 01:52:00,54.1,19.0,29.58,SW,229,7.0,7.0,25,0.00,,,0.00,0.0,meteohub,2013-03-04 08:52:00,
2013-03-04 01:57:00,54.0,18.9,29.58,SW,222,4.0,8.0,25,0.00,,,0.00,0.0,meteohub,2013-03-04 08:57:00,
2013-03-04 02:02:00,54.0,18.9,29.58,SW,223,6.0,8.0,25,0.00,,,0.00,0.0,meteohub,2013-03-04 09:02:00,
2013-03-04 02:07:00,54.0,18.9,29.58,SW,231,2.0,8.0,25,0.00,,,0.00,0.0,meteohub,2013-03-04 09:07:00,
2013-03-04 02:12:00,53.8,18.9,29.58,WSW,240,7.0,8.0,25,0.00,,,0.00,0.0,meteohub,2013-03-04 09:12:00,
2013-03-04 02:17:00,53.8,18.9,29.57,SSW,203,3.0,7.0,25,0.00,,,0.00,0.0,meteohub,2013-03-04 09:17:00,
2013-03-04 02:22:00,53.8,18.9,29.57,SSW,201,5.0,7.0,25,0.00,,,0.00,0.0,meteohub,2013-03-04 09:22:00,
2013-03-04 02:27:00,53.6,18.7,29.57,SSW,202,0.0,7.0,25,0.00,,,0.00,0.0,meteohub,2013-03-04 09:27:00,
2013-03-04 02:32:00,53.2,19.2,29.57,SSW,202,4.0,6.0,26,0.00,,,0.00,0.0,meteohub,2013-03-04 09:32:00,
2013-03-04 02:37:00,53.1,19.0,29.57,SSW,202,0.0,5.0,26,0.00,,,0.00,0.0,meteohub,2013-03-04 09:37:00,
2013-03-04 02:42:00,53.1,18.1,29.57,SW,215,6.0,6.0,25,0.00,,,0.00,0.0,meteohub,2013-03-04 09:42:00,
2013-03-04 02:47:00,53.1,19.0,29.57,SW,221,3.0,9.0,26,0.00,,,0.00,0.0,meteohub,2013-03-04 09:47:00,
2013-03-04 02:52:00,53.1,18.1,29.56,WSW,253,4.0,9.0,25,0.00,,,0.00,0.0,meteohub,2013-03-04 09:52:00,
2013-03-04 02:57:00,53.1,18.1,29.56,SSW,205,3.0,9.0,25,0.00,,,0.00,0.0,meteohub,2013-03-04 09:57:00,
2013-03-04 03:02:00,53.1,18.1,29.56,SW,232,5.0,8.0,25,0.00,,,0.00,0.0,meteohub,2013-03-04 10:02:00,
2013-03-04 03:07:00,53.1,18.1,29.56,WSW,242,2.0,8.0,25,0.00,,,0.00,0.0,meteohub,2013-03-04 10:07:00,
2013-03-04 03:12:00,52.9,18.0,29.56,SW,224,3.0,6.0,25,0.00,,,0.00,0.0,meteohub,2013-03-04 10:12:00,
2013-03-04 03:17:00,52.5,17.8,29.55,SW,221,2.0,6.0,25,0.00,,,0.00,0.0,meteohub,2013-03-04 10:17:00,
2013-03-04 03:22:00,52.3,17.6,29.55,SW,221,1.0,4.0,25,0.00,,,0.00,0.0,meteohub,2013-03-04 10:22:00,
2013-03-04 03:27:00,52.2,18.3,29.55,WSW,252,2.0,5.0,26,0.00,,,0.00,0.0,meteohub,2013-03-04 10:27:00,
2013-03-04 03:32:00,52.0,18.1,29.55,SW,215,3.0,7.0,26,0.00,,,0.00,0.0,meteohub,2013-03-04 10:32:00,
2013-03-04 03:37:00,51.4,18.5,29.55,SSW,206,2.0,7.0,27,0.00,,,0.00,0.0,meteohub,2013-03-04 10:37:00,
2013-03-04 03:42:00,51.3,18.3,29.55,South,184,0.0,6.0,27,0.00,,,0.00,0.0,meteohub,2013-03-04 10:42:00,
2013-03-04 03:47:00,51.1,18.3,29.55,South,183,1.0,4.0,27,0.00,,,0.00,0.0,meteohub,2013-03-04 10:47:00,
2013-03-04 03:52:00,51.3,18.3,29.55,South,174,0.0,4.0,27,0.00,,,0.00,0.0,meteohub,2013-03-04 10:52:00,
2013-03-04 03:57:00,51.3,18.3,29.55,South,174,3.0,5.0,27,0.00,,,0.00,0.0,meteohub,2013-03-04 10:57:00,
2013-03-04 04:02:00,51.4,18.5,29.55,South,174,0.0,5.0,27,0.00,,,0.00,0.0,meteohub,2013-03-04 11:02:00,
2013-03-04 04:07:00,51.3,18.3,29.55,South,174,0.0,4.0,27,0.00,,,0.00,0.0,meteohub,2013-03-04 11:07:00,
2013-03-04 04:12:00,51.1,18.3,29.55,South,173,3.0,3.0,27,0.00,,,0.00,0.0,meteohub,2013-03-04 11:12:00,
2013-03-04 04:17:00,50.9,18.9,29.55,SSW,195,3.0,5.0,28,0.00,,,0.00,0.0,meteohub,2013-03-04 11:17:00,
2013-03-04 04:22:00,50.9,18.1,29.55,South,188,1.0,6.0,27,0.00,,,0.00,0.0,meteohub,2013-03-04 11:22:00,
2013-03-04 04:27:00,50.9,18.1,29.55,South,188,0.0,6.0,27,0.00,,,0.00,0.0,meteohub,2013-03-04 11:27:00,
2013-03-04 04:32:00,50.5,18.7,29.55,South,187,0.0,6.0,28,0.00,,,0.00,0.0,meteohub,2013-03-04 11:32:00,
2013-03-04 04:37:00,50.4,18.5,29.55,South,187,0.0,4.0,28,0.00,,,0.00,0.0,meteohub,2013-03-04 11:37:00,
2013-03-04 04:42:00,50.4,19.2,29.55,South,187,0.0,2.0,29,0.00,,,0.00,0.0,meteohub,2013-03-04 11:42:00,
2013-03-04 04:47:00,50.2,19.2,29.55,South,187,0.0,2.0,29,0.00,,,0.00,0.0,meteohub,2013-03-04 11:47:00,
2013-03-04 04:52:00,50.0,19.0,29.55,South,186,0.0,2.0,29,0.00,,,0.00,0.0,meteohub,2013-03-04 11:52:00,
2013-03-04 04:57:00,49.8,18.9,29.55,South,186,1.0,2.0,29,0.00,,,0.00,0.0,meteohub,2013-03-04 11:57:00,
2013-03-04 05:02:00,49.6,18.7,29.56,South,169,1.0,2.0,29,0.00,,,0.00,0.0,meteohub,2013-03-04 12:02:00,
2013-03-04 05:07:00,49.6,18.7,29.55,South,169,0.0,3.0,29,0.00,,,0.00,0.0,meteohub,2013-03-04 12:07:00,
2013-03-04 05:12:00,49.6,19.4,29.56,South,169,0.0,3.0,30,0.00,,,0.00,0.0,meteohub,2013-03-04 12:12:00,
2013-03-04 05:17:00,49.5,19.2,29.55,South,169,0.0,2.0,30,0.00,,,0.00,0.0,meteohub,2013-03-04 12:17:00,
2013-03-04 05:22:00,49.5,19.2,29.55,South,169,0.0,2.0,30,0.00,,,0.00,0.0,meteohub,2013-03-04 12:22:00,
2013-03-04 05:27:00,49.5,20.1,29.55,South,169,2.0,2.0,31,0.00,,,0.00,0.0,meteohub,2013-03-04 12:27:00,
2013-03-04 05:32:00,50.0,18.1,29.55,SE,144,4.0,6.0,28,0.00,,,0.00,0.0,meteohub,2013-03-04 12:32:00,
2013-03-04 05:37:00,50.2,19.2,29.55,SE,142,0.0,6.0,29,0.00,,,0.00,0.0,meteohub,2013-03-04 12:37:00,
2013-03-04 05:42:00,49.8,18.9,29.56,SE,142,0.0,6.0,29,0.00,,,0.00,0.0,meteohub,2013-03-04 12:42:00,
2013-03-04 05:47:00,49.8,18.9,29.56,SE,142,0.0,6.0,29,0.00,,,0.00,0.0,meteohub,2013-03-04 12:47:00,
2013-03-04 05:52:00,50.0,18.1,29.56,SSE,156,3.0,4.0,28,0.00,,,0.00,0.0,meteohub,2013-03-04 12:52:00,
2013-03-04 05:57:00,50.4,18.5,29.56,SSE,162,0.0,5.0,28,0.00,,,0.00,0.0,meteohub,2013-03-04 12:57:00,
2013-03-04 06:02:00,50.5,18.7,29.55,SSE,162,0.0,7.0,28,0.00,,,0.00,0.0,meteohub,2013-03-04 13:02:00,
2013-03-04 06:07:00,50.4,18.5,29.55,SSE,162,1.0,7.0,28,0.00,,,0.00,0.0,meteohub,2013-03-04 13:07:00,
2013-03-04 06:12:00,50.4,18.5,29.55,SE,137,5.0,5.0,28,0.00,,,0.00,0.0,meteohub,2013-03-04 13:12:00,
2013-03-04 06:17:00,50.4,18.5,29.56,SE,137,1.0,5.0,28,0.00,,,0.00,0.0,meteohub,2013-03-04 13:17:00,
2013-03-04 06:22:00,50.2,18.3,29.55,SE,137,0.0,5.0,28,0.00,,,0.00,0.0,meteohub,2013-03-04 13:22:00,
2013-03-04 06:27:00,50.2,18.3,29.55,SE,137,1.0,5.0,28,0.00,,,0.00,0.0,meteohub,2013-03-04 13:27:00,
2013-03-04 06:32:00,50.2,18.3,29.55,SE,138,0.0,2.0,28,0.00,,,0.00,0.0,meteohub,2013-03-04 13:32:00,
2013-03-04 06:37:00,50.0,18.1,29.55,SE,138,1.0,4.0,28,0.00,,,0.00,0.0,meteohub,2013-03-04 13:37:00,
2013-03-04 06:42:00,50.0,18.1,29.55,SE,139,1.0,4.0,28,0.00,,,0.00,0.0,meteohub,2013-03-04 13:42:00,
2013-03-04 06:47:00,49.8,18.0,29.55,SE,142,3.0,4.0,28,0.00,,,0.00,0.0,meteohub,2013-03-04 13:47:00,
2013-03-04 06:52:00,49.8,18.0,29.55,SE,142,1.0,4.0,28,0.00,,,0.00,5.0,meteohub,2013-03-04 13:52:00,
2013-03-04 06:57:00,49.8,18.0,29.55,SE,142,0.0,4.0,28,0.00,,,0.00,7.0,meteohub,2013-03-04 13:57:00,
2013-03-04 07:02:00,49.8,18.0,29.55,SE,139,3.0,4.0,28,0.00,,,0.00,14.0,meteohub,2013-03-04 14:02:00,
2013-03-04 07:07:00,49.8,18.0,29.56,SE,140,1.0,3.0,28,0.00,,,0.00,14.0,meteohub,2013-03-04 14:07:00,
2013-03-04 07:12:00,49.8,18.0,29.55,SE,140,0.0,3.0,28,0.00,,,0.00,19.0,meteohub,2013-03-04 14:12:00,
2013-03-04 07:17:00,49.8,18.0,29.55,SE,138,2.0,3.0,28,0.00,,,0.00,21.0,meteohub,2013-03-04 14:17:00,
2013-03-04 07:22:00,49.8,18.0,29.55,SE,138,1.0,2.0,28,0.00,,,0.00,23.0,meteohub,2013-03-04 14:22:00,
2013-03-04 07:27:00,49.8,18.0,29.56,SE,138,0.0,2.0,28,0.00,,,0.00,23.0,meteohub,2013-03-04 14:27:00,
2013-03-04 07:32:00,50.0,18.1,29.56,SE,138,1.0,2.0,28,0.00,,,0.00,28.0,meteohub,2013-03-04 14:32:00,
2013-03-04 07:37:00,50.2,18.3,29.56,SE,139,1.0,3.0,28,0.00,,,0.00,37.0,meteohub,2013-03-04 14:37:00,
2013-03-04 07:42:00,50.4,18.5,29.56,SE,142,1.0,3.0,28,0.00,,,0.00,42.0,meteohub,2013-03-04 14:42:00,
2013-03-04 07:47:00,50.5,19.4,29.56,SE,136,3.0,6.0,29,0.00,,,0.00,53.0,meteohub,2013-03-04 14:47:00,
2013-03-04 07:52:00,50.9,18.1,29.56,South,169,3.0,8.0,27,0.00,,,0.00,63.0,meteohub,2013-03-04 14:52:00,
2013-03-04 07:57:00,51.1,18.3,29.56,SSE,168,0.0,8.0,27,0.00,,,0.00,63.0,meteohub,2013-03-04 14:57:00,
2013-03-04 08:02:00,50.9,18.1,29.56,South,169,4.0,8.0,27,0.00,,,0.00,53.0,meteohub,2013-03-04 15:02:00,
2013-03-04 08:07:00,51.1,18.3,29.56,South,170,2.0,6.0,27,0.00,,,0.00,62.0,meteohub,2013-03-04 15:07:00,
2013-03-04 08:12:00,51.1,18.3,29.56,South,179,4.0,6.0,27,0.00,,,0.00,76.0,meteohub,2013-03-04 15:12:00,
2013-03-04 08:17:00,51.1,18.3,29.56,South,173,2.0,6.0,27,0.00,,,0.00,90.0,meteohub,2013-03-04 15:17:00,
2013-03-04 08:22:00,51.1,18.3,29.56,South,173,1.0,6.0,27,0.00,,,0.00,86.0,meteohub,2013-03-04 15:22:00,
2013-03-04 08:27:00,51.1,18.3,29.56,SSE,167,2.0,7.0,27,0.00,,,0.00,97.0,meteohub,2013-03-04 15:27:00,
2013-03-04 08:32:00,51.3,18.3,29.56,SSE,167,1.0,7.0,27,0.00,,,0.00,109.0,meteohub,2013-03-04 15:32:00,
2013-03-04 08:37:00,51.3,18.3,29.55,SSE,164,0.0,5.0,27,0.00,,,0.00,113.0,meteohub,2013-03-04 15:37:00,
2013-03-04 08:42:00,51.4,18.5,29.55,South,182,3.0,7.0,27,0.00,,,0.00,118.0,meteohub,2013-03-04 15:42:00,
2013-03-04 08:47:00,51.6,18.7,29.55,South,182,1.0,7.0,27,0.00,,,0.00,135.0,meteohub,2013-03-04 15:47:00,
2013-03-04 08:52:00,52.0,19.0,29.55,South,181,2.0,7.0,27,0.00,,,0.00,153.0,meteohub,2013-03-04 15:52:00,
2013-03-04 08:57:00,52.2,19.2,29.55,SSW,193,3.0,7.0,27,0.00,,,0.00,153.0,meteohub,2013-03-04 15:57:00,
2013-03-04 09:02:00,52.2,19.2,29.55,SSW,192,1.0,7.0,27,0.00,,,0.00,172.0,meteohub,2013-03-04 16:02:00,
2013-03-04 09:07:00,52.5,19.4,29.55,SSW,194,4.0,7.0,27,0.00,,,0.00,167.0,meteohub,2013-03-04 16:07:00,
2013-03-04 09:12:00,52.5,18.7,29.55,SSW,192,3.0,7.0,26,0.00,,,0.00,181.0,meteohub,2013-03-04 16:12:00,
2013-03-04 09:17:00,52.9,18.9,29.55,WSW,242,4.0,7.0,26,0.00,,,0.00,202.0,meteohub,2013-03-04 16:17:00,
2013-03-04 09:22:00,53.2,20.1,29.55,WSW,242,5.0,8.0,27,0.00,,,0.00,176.0,meteohub,2013-03-04 16:22:00,
2013-03-04 09:27:00,53.8,20.7,29.55,WSW,240,3.0,11.0,27,0.00,,,0.00,163.0,meteohub,2013-03-04 16:27:00,
2013-03-04 09:32:00,53.8,19.8,29.55,WSW,245,7.0,11.0,26,0.00,,,0.00,176.0,meteohub,2013-03-04 16:32:00,
2013-03-04 09:37:00,53.8,19.8,29.55,WSW,246,6.0,12.0,26,0.00,,,0.00,181.0,meteohub,2013-03-04 16:37:00,
2013-03-04 09:42:00,53.8,19.8,29.54,WSW,252,7.0,12.0,26,0.00,,,0.00,190.0,meteohub,2013-03-04 16:42:00,
2013-03-04 09:47:00,54.0,19.8,29.54,SW,227,3.0,12.0,26,0.00,,,0.00,211.0,meteohub,2013-03-04 16:47:00,
2013-03-04 09:52:00,54.1,19.9,29.54,WSW,254,8.0,10.0,26,0.00,,,0.00,167.0,meteohub,2013-03-04 16:52:00,
2013-03-04 09:57:00,54.1,19.0,29.54,SSW,202,8.0,14.0,25,0.00,,,0.00,171.0,meteohub,2013-03-04 16:57:00,
2013-03-04 10:02:00,54.1,19.0,29.54,SW,223,11.0,14.0,25,0.00,,,0.00,137.0,meteohub,2013-03-04 17:02:00,
2013-03-04 10:07:00,54.1,19.0,29.55,SSW,209,6.0,14.0,25,0.00,,,0.00,144.0,meteohub,2013-03-04 17:07:00,
2013-03-04 10:12:00,54.3,20.1,29.54,WSW,248,8.0,14.0,26,0.00,,,0.00,171.0,meteohub,2013-03-04 17:12:00,
2013-03-04 10:17:00,54.5,20.3,29.55,WSW,252,4.0,12.0,26,0.00,,,0.00,160.0,meteohub,2013-03-04 17:17:00,
2013-03-04 10:22:00,54.5,20.3,29.54,SW,215,9.0,11.0,26,0.00,,,0.00,172.0,meteohub,2013-03-04 17:22:00,
2013-03-04 10:27:00,54.5,19.4,29.54,West,274,4.0,11.0,25,0.00,,,0.00,237.0,meteohub,2013-03-04 17:27:00,
2013-03-04 10:32:00,54.9,19.8,29.54,WSW,242,6.0,11.0,25,0.00,,,0.00,172.0,meteohub,2013-03-04 17:32:00,
2013-03-04 10:37:00,55.0,19.8,29.53,West,259,10.0,11.0,25,0.00,,,0.00,211.0,meteohub,2013-03-04 17:37:00,
2013-03-04 10:42:00,55.2,19.9,29.53,WSW,245,5.0,11.0,25,0.00,,,0.00,253.0,meteohub,2013-03-04 17:42:00,
2013-03-04 10:47:00,55.6,20.3,29.53,WSW,251,7.0,11.0,25,0.00,,,0.00,223.0,meteohub,2013-03-04 17:47:00,
2013-03-04 10:52:00,55.6,20.3,29.53,WSW,241,11.0,11.0,25,0.00,,,0.00,169.0,meteohub,2013-03-04 17:52:00,
2013-03-04 10:57:00,55.6,20.3,29.53,West,271,12.0,13.0,25,0.00,,,0.00,156.0,meteohub,2013-03-04 17:57:00,
2013-03-04 11:02:00,55.8,20.5,29.53,NNW,329,8.0,13.0,25,0.00,,,0.00,209.0,meteohub,2013-03-04 18:02:00,
2013-03-04 11:07:00,55.9,20.7,29.52,WNW,302,16.0,18.0,25,0.00,,,0.00,251.0,meteohub,2013-03-04 18:07:00,
2013-03-04 11:12:00,56.3,20.8,29.52,WNW,293,10.0,19.0,25,0.00,,,0.00,234.0,meteohub,2013-03-04 18:12:00,
2013-03-04 11:17:00,56.7,21.2,29.52,NW,313,12.0,19.0,25,0.00,,,0.00,193.0,meteohub,2013-03-04 18:17:00,
2013-03-04 11:22:00,56.7,21.2,29.52,NW,308,10.0,19.0,25,0.00,,,0.00,197.0,meteohub,2013-03-04 18:22:00,
2013-03-04 11:27:00,56.5,21.0,29.52,NW,304,8.0,17.0,25,0.00,,,0.00,186.0,meteohub,2013-03-04 18:27:00,
2013-03-04 11:32:00,56.7,21.2,29.52,NW,321,10.0,19.0,25,0.00,,,0.00,214.0,meteohub,2013-03-04 18:32:00,
2013-03-04 11:37:00,56.7,22.1,29.52,WNW,292,9.0,20.0,26,0.00,,,0.00,204.0,meteohub,2013-03-04 18:37:00,
2013-03-04 11:42:00,56.7,22.1,29.51,WNW,284,5.0,20.0,26,0.00,,,0.00,232.0,meteohub,2013-03-04 18:42:00,
2013-03-04 11:47:00,56.8,21.4,29.51,WNW,299,6.0,20.0,25,0.00,,,0.00,248.0,meteohub,2013-03-04 18:47:00,
2013-03-04 11:52:00,56.8,21.4,29.50,WNW,295,15.0,18.0,25,0.00,,,0.00,267.0,meteohub,2013-03-04 18:52:00,
2013-03-04 11:57:00,56.8,22.3,29.50,NW,306,6.0,18.0,26,0.00,,,0.00,272.0,meteohub,2013-03-04 18:57:00,
2013-03-04 12:02:00,57.0,21.6,29.50,NW,306,7.0,17.0,25,0.00,,,0.00,239.0,meteohub,2013-03-04 19:02:00,
2013-03-04 12:07:00,57.0,21.6,29.50,West,281,8.0,18.0,25,0.00,,,0.00,250.0,meteohub,2013-03-04 19:07:00,
2013-03-04 12:12:00,57.4,21.9,29.50,WNW,297,5.0,18.0,25,0.00,,,0.00,232.0,meteohub,2013-03-04 19:12:00,
2013-03-04 12:17:00,57.4,21.9,29.49,WNW,300,6.0,18.0,25,0.00,,,0.00,178.0,meteohub,2013-03-04 19:17:00,
2013-03-04 12:22:00,57.4,21.9,29.49,WNW,297,10.0,14.0,25,0.00,,,0.00,239.0,meteohub,2013-03-04 19:22:00,
2013-03-04 12:27:00,57.6,21.9,29.49,NW,315,4.0,16.0,25,0.00,,,0.00,209.0,meteohub,2013-03-04 19:27:00,
2013-03-04 12:32:00,57.7,21.2,29.49,WNW,288,7.0,16.0,24,0.00,,,0.00,195.0,meteohub,2013-03-04 19:32:00,
2013-03-04 12:37:00,57.7,20.1,29.49,WNW,300,6.0,17.0,23,0.00,,,0.00,236.0,meteohub,2013-03-04 19:37:00,
2013-03-04 12:42:00,57.7,20.1,29.49,WNW,296,11.0,17.0,23,0.00,,,0.00,258.0,meteohub,2013-03-04 19:42:00,
2013-03-04 12:47:00,58.6,19.9,29.49,NW,307,12.0,22.0,22,0.00,,,0.00,258.0,meteohub,2013-03-04 19:47:00,
2013-03-04 12:52:00,59.4,19.4,29.49,WNW,285,15.0,25.0,21,0.00,,,0.00,888.0,meteohub,2013-03-04 19:52:00,
2013-03-04 12:57:00,59.7,18.5,29.48,WNW,286,6.0,25.0,20,0.00,,,0.00,939.0,meteohub,2013-03-04 19:57:00,
2013-03-04 13:02:00,60.6,18.1,29.48,WNW,282,12.0,26.0,19,0.00,,,0.00,963.0,meteohub,2013-03-04 20:02:00,
2013-03-04 13:07:00,61.0,18.5,29.47,WNW,285,11.0,26.0,19,0.00,,,0.00,279.0,meteohub,2013-03-04 20:07:00,
2013-03-04 13:12:00,60.1,17.6,29.47,WNW,292,9.0,26.0,19,0.00,,,0.00,271.0,meteohub,2013-03-04 20:12:00,
2013-03-04 13:17:00,59.7,17.4,29.47,WNW,301,11.0,26.0,19,0.00,,,0.00,274.0,meteohub,2013-03-04 20:17:00,
2013-03-04 13:22:00,60.1,16.3,29.47,WNW,290,8.0,26.0,18,0.00,,,0.00,258.0,meteohub,2013-03-04 20:22:00,
2013-03-04 13:27:00,60.1,17.6,29.47,NW,305,10.0,21.0,19,0.00,,,0.00,343.0,meteohub,2013-03-04 20:27:00,
2013-03-04 13:32:00,59.5,18.5,29.47,West,280,9.0,22.0,20,0.00,,,0.00,981.0,meteohub,2013-03-04 20:32:00,
2013-03-04 13:37:00,60.4,18.0,29.46,West,277,8.0,27.0,19,0.00,,,0.00,977.0,meteohub,2013-03-04 20:37:00,
2013-03-04 13:42:00,61.2,18.5,29.47,WSW,240,7.0,27.0,19,0.00,,,0.00,262.0,meteohub,2013-03-04 20:42:00,
2013-03-04 13:47:00,61.2,17.2,29.47,WNW,299,10.0,27.0,18,0.00,,,0.00,274.0,meteohub,2013-03-04 20:47:00,
2013-03-04 13:52:00,60.6,16.9,29.47,WNW,282,13.0,22.0,18,0.00,,,0.00,318.0,meteohub,2013-03-04 20:52:00,
2013-03-04 13:57:00,60.3,17.8,29.47,WNW,296,9.0,22.0,19,0.00,,,0.00,308.0,meteohub,2013-03-04 20:57:00,
2013-03-04 14:02:00,60.4,18.0,29.47,WNW,288,14.0,22.0,19,0.00,,,0.00,209.0,meteohub,2013-03-04 21:02:00,
2013-03-04 14:07:00,60.4,18.0,29.47,WNW,294,14.0,19.0,19,0.00,,,0.00,251.0,meteohub,2013-03-04 21:07:00,
2013-03-04 14:12:00,60.4,16.7,29.47,NW,321,17.0,19.0,18,0.00,,,0.00,278.0,meteohub,2013-03-04 21:12:00,
2013-03-04 14:17:00,60.1,16.3,29.47,NW,304,14.0,25.0,18,0.00,,,0.00,265.0,meteohub,2013-03-04 21:17:00,
2013-03-04 14:22:00,60.3,15.3,29.48,WNW,289,13.0,27.0,17,0.00,,,0.00,872.0,meteohub,2013-03-04 21:22:00,
2013-03-04 14:27:00,60.4,16.7,29.48,NW,326,12.0,29.0,18,0.00,,,0.00,281.0,meteohub,2013-03-04 21:27:00,
2013-03-04 14:32:00,60.3,16.5,29.48,NW,305,11.0,29.0,18,0.00,,,0.00,316.0,meteohub,2013-03-04 21:32:00,
2013-03-04 14:37:00,60.6,14.2,29.49,NW,323,12.0,29.0,16,0.00,,,0.00,352.0,meteohub,2013-03-04 21:37:00,
2013-03-04 14:42:00,61.3,11.7,29.49,WSW,252,14.0,22.0,14,0.00,,,0.00,186.0,meteohub,2013-03-04 21:42:00,
2013-03-04 14:47:00,61.0,18.5,29.49,NNW,342,20.0,21.0,19,0.00,,,0.00,313.0,meteohub,2013-03-04 21:47:00,
2013-03-04 14:52:00,60.1,19.9,29.49,NW,314,12.0,26.0,21,0.00,,,0.00,236.0,meteohub,2013-03-04 21:52:00,
2013-03-04 14:57:00,59.2,20.3,29.49,NW,306,21.0,26.0,22,0.00,,,0.00,227.0,meteohub,2013-03-04 21:57:00,
2013-03-04 15:02:00,58.8,21.0,29.50,NNW,340,13.0,26.0,23,0.00,,,0.00,568.0,meteohub,2013-03-04 22:02:00,
2013-03-04 15:07:00,59.4,21.6,29.51,NNW,339,12.0,26.0,23,0.00,,,0.00,613.0,meteohub,2013-03-04 22:07:00,
2013-03-04 15:12:00,59.7,19.8,29.51,NW,314,7.0,26.0,21,0.00,,,0.00,501.0,meteohub,2013-03-04 22:12:00,
2013-03-04 15:17:00,60.4,20.3,29.52,NW,312,18.0,24.0,21,0.00,,,0.00,561.0,meteohub,2013-03-04 22:17:00,
2013-03-04 15:22:00,60.3,20.1,29.51,NNW,346,16.0,28.0,21,0.00,,,0.00,513.0,meteohub,2013-03-04 22:22:00,
2013-03-04 15:27:00,60.1,19.9,29.51,NW,304,15.0,28.0,21,0.00,,,0.00,483.0,meteohub,2013-03-04 22:27:00,
2013-03-04 15:32:00,59.9,19.9,29.51,NW,315,21.0,28.0,21,0.00,,,0.00,466.0,meteohub,2013-03-04 22:32:00,
2013-03-04 15:37:00,59.7,20.8,29.52,NW,306,7.0,23.0,22,0.00,,,0.00,450.0,meteohub,2013-03-04 22:37:00,
2013-03-04 15:42:00,59.9,19.9,29.52,NW,317,11.0,23.0,21,0.00,,,0.00,434.0,meteohub,2013-03-04 22:42:00,
2013-03-04 15:47:00,59.7,19.8,29.52,NW,319,14.0,22.0,21,0.00,,,0.00,415.0,meteohub,2013-03-04 22:47:00,
2013-03-04 15:52:00,59.7,19.8,29.52,WNW,293,14.0,22.0,21,0.00,,,0.00,420.0,meteohub,2013-03-04 22:52:00,
2013-03-04 15:57:00,59.4,20.5,29.52,NW,305,10.0,22.0,22,0.00,,,0.00,390.0,meteohub,2013-03-04 22:57:00,
2013-03-04 16:02:00,59.4,19.4,29.52,NNW,333,7.0,25.0,21,0.00,,,0.00,381.0,meteohub,2013-03-04 23:02:00,
2013-03-04 16:07:00,59.5,19.6,29.53,NW,320,7.0,25.0,21,0.00,,,0.00,348.0,meteohub,2013-03-04 23:07:00,
2013-03-04 16:12:00,59.2,19.2,29.53,NW,306,11.0,19.0,21,0.00,,,0.00,325.0,meteohub,2013-03-04 23:12:00,
2013-03-04 16:17:00,58.8,19.0,29.53,WNW,297,5.0,21.0,21,0.00,,,0.00,302.0,meteohub,2013-03-04 23:17:00,
2013-03-04 16:22:00,59.4,19.4,29.54,NW,323,10.0,21.0,21,0.00,,,0.00,281.0,meteohub,2013-03-04 23:22:00,
2013-03-04 16:27:00,59.2,20.3,29.54,NW,310,9.0,21.0,22,0.00,,,0.00,265.0,meteohub,2013-03-04 23:27:00,
2013-03-04 16:32:00,58.8,20.1,29.54,WSW,257,8.0,16.0,22,0.00,,,0.00,246.0,meteohub,2013-03-04 23:32:00,
2013-03-04 16:37:00,58.8,20.1,29.54,NW,315,15.0,16.0,22,0.00,,,0.00,234.0,meteohub,2013-03-04 23:37:00,
2013-03-04 16:42:00,58.8,20.1,29.54,NNW,334,10.0,17.0,22,0.00,,,0.00,216.0,meteohub,2013-03-04 23:42:00,
2013-03-04 16:47:00,58.6,19.9,29.54,North,355,6.0,17.0,22,0.00,,,0.00,214.0,meteohub,2013-03-04 23:47:00,
2013-03-04 16:52:00,59.2,19.2,29.55,NW,323,9.0,17.0,21,0.00,,,0.00,197.0,meteohub,2013-03-04 23:52:00,
2013-03-04 16:57:00,59.2,19.2,29.55,NNW,340,10.0,16.0,21,0.00,,,0.00,188.0,meteohub,2013-03-04 23:57:00,
2013-03-04 17:02:00,59.4,18.3,29.55,WNW,286,6.0,16.0,20,0.00,,,0.00,186.0,meteohub,2013-03-05 00:02:00,
2013-03-04 17:07:00,59.5,18.5,29.55,NNW,332,10.0,20.0,20,0.00,,,0.00,149.0,meteohub,2013-03-05 00:07:00,
2013-03-04 17:12:00,59.5,18.5,29.56,NNW,330,15.0,20.0,20,0.00,,,0.00,118.0,meteohub,2013-03-05 00:12:00,
2013-03-04 17:17:00,59.2,18.1,29.56,NNW,329,6.0,20.0,20,0.00,,,0.00,95.0,meteohub,2013-03-05 00:17:00,
2013-03-04 17:22:00,59.2,19.2,29.56,NW,313,9.0,18.0,21,0.00,,,0.00,77.0,meteohub,2013-03-05 00:22:00,
2013-03-04 17:27:00,59.0,19.0,29.56,NW,311,8.0,18.0,21,0.00,,,0.00,54.0,meteohub,2013-03-05 00:27:00,
2013-03-04 17:32:00,58.8,17.8,29.57,WNW,292,8.0,17.0,20,0.00,,,0.00,32.0,meteohub,2013-03-05 00:32:00,
2013-03-04 17:37:00,58.6,17.6,29.57,NW,323,14.0,17.0,20,0.00,,,0.00,26.0,meteohub,2013-03-05 00:37:00,
2013-03-04 17:42:00,58.3,17.4,29.57,WNW,302,5.0,21.0,20,0.00,,,0.00,21.0,meteohub,2013-03-05 00:42:00,
2013-03-04 17:47:00,58.1,17.2,29.57,NNW,333,10.0,21.0,20,0.00,,,0.00,16.0,meteohub,2013-03-05 00:47:00,
2013-03-04 17:52:00,57.7,18.1,29.58,NW,315,7.0,21.0,21,0.00,,,0.00,12.0,meteohub,2013-03-05 00:52:00,
2013-03-04 17:57:00,57.6,18.0,29.58,NW,313,6.0,19.0,21,0.00,,,0.00,9.0,meteohub,2013-03-05 00:57:00,
2013-03-04 18:02:00,57.4,17.8,29.59,NNW,336,9.0,18.0,21,0.00,,,0.00,5.0,meteohub,2013-03-05 01:02:00,
2013-03-04 18:07:00,57.0,18.5,29.60,North,355,8.0,17.0,22,0.00,,,0.00,0.0,meteohub,2013-03-05 01:07:00,
2013-03-04 18:12:00,56.8,18.3,29.60,NW,306,12.0,17.0,22,0.00,,,0.00,0.0,meteohub,2013-03-05 01:12:00,
2013-03-04 18:17:00,56.7,18.3,29.60,NW,311,7.0,16.0,22,0.00,,,0.00,0.0,meteohub,2013-03-05 01:17:00,
2013-03-04 18:22:00,56.5,18.1,29.61,NW,321,4.0,16.0,22,0.00,,,0.00,0.0,meteohub,2013-03-05 01:22:00,
2013-03-04 18:27:00,56.1,17.8,29.61,NNW,337,5.0,16.0,22,0.00,,,0.00,0.0,meteohub,2013-03-05 01:27:00,
2013-03-04 18:32:00,55.8,18.5,29.62,NNW,331,3.0,12.0,23,0.00,,,0.00,0.0,meteohub,2013-03-05 01:32:00,
2013-03-04 18:37:00,55.4,19.2,29.62,NNW,344,3.0,11.0,24,0.00,,,0.00,0.0,meteohub,2013-03-05 01:37:00,
2013-03-04 18:42:00,55.2,19.0,29.63,North,11,5.0,9.0,24,0.00,,,0.00,0.0,meteohub,2013-03-05 01:42:00,
2013-03-04 18:47:00,55.0,18.9,29.63,North,9,4.0,8.0,24,0.00,,,0.00,0.0,meteohub,2013-03-05 01:47:00,
2013-03-04 18:52:00,54.7,19.6,29.64,North,355,2.0,8.0,25,0.00,,,0.00,0.0,meteohub,2013-03-05 01:52:00,
2013-03-04 18:57:00,54.1,19.0,29.64,NNE,18,2.0,8.0,25,0.00,,,0.00,0.0,meteohub,2013-03-05 01:57:00,
2013-03-04 19:02:00,54.0,18.9,29.65,NNE,17,1.0,8.0,25,0.00,,,0.00,0.0,meteohub,2013-03-05 02:02:00,
2013-03-04 19:07:00,53.8,19.8,29.65,NNE,15,1.0,5.0,26,0.00,,,0.00,0.0,meteohub,2013-03-05 02:07:00,
2013-03-04 19:12:00,53.4,19.4,29.65,NNE,24,1.0,4.0,26,0.00,,,0.00,0.0,meteohub,2013-03-05 02:12:00,
2013-03-04 19:17:00,53.2,19.2,29.66,NE,42,3.0,5.0,26,0.00,,,0.00,0.0,meteohub,2013-03-05 02:17:00,
2013-03-04 19:22:00,52.9,18.9,29.66,NNE,22,3.0,5.0,26,0.00,,,0.00,0.0,meteohub,2013-03-05 02:22:00,
2013-03-04 19:27:00,52.5,19.4,29.66,NNE,27,3.0,5.0,27,0.00,,,0.00,0.0,meteohub,2013-03-05 02:27:00,
2013-03-04 19:32:00,52.5,19.4,29.67,North,5,4.0,9.0,27,0.00,,,0.00,0.0,meteohub,2013-03-05 02:32:00,
2013-03-04 19:37:00,52.9,18.9,29.67,North,10,5.0,9.0,26,0.00,,,0.00,0.0,meteohub,2013-03-05 02:37:00,
2013-03-04 19:42:00,52.9,18.9,29.67,North,5,5.0,9.0,26,0.00,,,0.00,0.0,meteohub,2013-03-05 02:42:00,
2013-03-04 19:47:00,52.9,18.9,29.67,NNE,17,2.0,7.0,26,0.00,,,0.00,0.0,meteohub,2013-03-05 02:47:00,
2013-03-04 19:52:00,52.7,19.6,29.67,NE,36,5.0,7.0,27,0.00,,,0.00,0.0,meteohub,2013-03-05 02:52:00,
2013-03-04 19:57:00,52.3,19.4,29.68,NNE,28,3.0,8.0,27,0.00,,,0.00,0.0,meteohub,2013-03-05 02:57:00,
2013-03-04 20:02:00,52.3,19.4,29.68,NE,44,4.0,8.0,27,0.00,,,0.00,0.0,meteohub,2013-03-05 03:02:00,
2013-03-04 20:07:00,52.0,19.0,29.68,NE,44,2.0,7.0,27,0.00,,,0.00,0.0,meteohub,2013-03-05 03:07:00,
2013-03-04 20:12:00,51.4,19.4,29.68,NE,44,4.0,7.0,28,0.00,,,0.00,0.0,meteohub,2013-03-05 03:12:00,
2013-03-04 20:17:00,51.4,19.4,29.68,NE,46,1.0,7.0,28,0.00,,,0.00,0.0,meteohub,2013-03-05 03:17:00,
2013-03-04 20:22:00,51.3,19.2,29.69,NE,42,1.0,6.0,28,0.00,,,0.00,0.0,meteohub,2013-03-05 03:22:00,
2013-03-04 20:27:00,51.3,19.2,29.69,NNE,30,2.0,5.0,28,0.00,,,0.00,0.0,meteohub,2013-03-05 03:27:00,
2013-03-04 20:32:00,51.3,20.1,29.69,NE,49,2.0,5.0,29,0.00,,,0.00,0.0,meteohub,2013-03-05 03:32:00,
2013-03-04 20:37:00,51.3,20.1,29.69,NE,34,2.0,5.0,29,0.00,,,0.00,0.0,meteohub,2013-03-05 03:37:00,
2013-03-04 20:42:00,51.4,20.3,29.70,NNE,25,4.0,6.0,29,0.00,,,0.00,0.0,meteohub,2013-03-05 03:42:00,
2013-03-04 20:47:00,51.3,20.1,29.70,NNE,29,3.0,6.0,29,0.00,,,0.00,0.0,meteohub,2013-03-05 03:47:00,
2013-03-04 20:52:00,51.3,20.1,29.70,NNE,18,5.0,8.0,29,0.00,,,0.00,0.0,meteohub,2013-03-05 03:52:00,
2013-03-04 20:57:00,51.3,20.1,29.70,NNE,33,3.0,8.0,29,0.00,,,0.00,0.0,meteohub,2013-03-05 03:57:00,
2013-03-04 21:02:00,51.1,19.9,29.70,NNE,29,4.0,8.0,29,0.00,,,0.00,0.0,meteohub,2013-03-05 04:02:00,
2013-03-04 21:07:00,51.1,20.7,29.70,NNE,32,7.0,9.0,30,0.00,,,0.00,0.0,meteohub,2013-03-05 04:07:00,
2013-03-04 21:12:00,51.4,20.3,29.71,NNE,29,6.0,11.0,29,0.00,,,0.00,0.0,meteohub,2013-03-05 04:12:00,
2013-03-04 21:17:00,51.8,20.5,29.71,NNE,20,4.0,12.0,29,0.00,,,0.00,0.0,meteohub,2013-03-05 04:17:00,
2013-03-04 21:22:00,51.6,20.3,29.72,North,11,4.0,12.0,29,0.00,,,0.00,0.0,meteohub,2013-03-05 04:22:00,
2013-03-04 21:27:00,51.4,20.3,29.72,North,355,3.0,12.0,29,0.00,,,0.00,0.0,meteohub,2013-03-05 04:27:00,
2013-03-04 21:32:00,51.4,20.3,29.72,NNW,332,4.0,12.0,29,0.00,,,0.00,0.0,meteohub,2013-03-05 04:32:00,
2013-03-04 21:37:00,51.3,20.1,29.73,NNW,346,4.0,14.0,29,0.00,,,0.00,0.0,meteohub,2013-03-05 04:37:00,
2013-03-04 21:42:00,51.1,19.9,29.73,NW,321,3.0,14.0,29,0.00,,,0.00,0.0,meteohub,2013-03-05 04:42:00,
2013-03-04 21:47:00,50.9,20.5,29.73,NW,321,8.0,14.0,30,0.00,,,0.00,0.0,meteohub,2013-03-05 04:47:00,
2013-03-04 21:52:00,50.9,20.5,29.74,NNE,12,4.0,12.0,30,0.00,,,0.00,0.0,meteohub,2013-03-05 04:52:00,
2013-03-04 21:57:00,50.7,20.5,29.74,North,355,6.0,12.0,30,0.00,,,0.00,0.0,meteohub,2013-03-05 04:57:00,
2013-03-04 22:02:00,50.7,20.5,29.74,NNW,330,9.0,12.0,30,0.00,,,0.00,0.0,meteohub,2013-03-05 05:02:00,
2013-03-04 22:07:00,50.7,20.5,29.75,NNW,341,5.0,13.0,30,0.00,,,0.00,0.0,meteohub,2013-03-05 05:07:00,
2013-03-04 22:12:00,50.5,20.3,29.75,NNW,342,6.0,13.0,30,0.00,,,0.00,0.0,meteohub,2013-03-05 05:12:00,
2013-03-04 22:17:00,50.7,20.5,29.75,NNW,344,5.0,13.0,30,0.00,,,0.00,0.0,meteohub,2013-03-05 05:17:00,
2013-03-04 22:22:00,50.4,20.1,29.76,North,350,8.0,13.0,30,0.00,,,0.00,0.0,meteohub,2013-03-05 05:22:00,
2013-03-04 22:27:00,50.4,20.1,29.77,NNW,338,3.0,13.0,30,0.00,,,0.00,0.0,meteohub,2013-03-05 05:27:00,
2013-03-04 22:32:00,49.8,20.3,29.77,NNW,334,2.0,12.0,31,0.00,,,0.00,0.0,meteohub,2013-03-05 05:32:00,
2013-03-04 22:37:00,49.6,20.3,29.77,NNE,14,4.0,12.0,31,0.00,,,0.00,0.0,meteohub,2013-03-05 05:37:00,
2013-03-04 22:42:00,49.5,20.1,29.78,NNE,33,0.0,6.0,31,0.00,,,0.00,0.0,meteohub,2013-03-05 05:42:00,
2013-03-04 22:47:00,48.9,20.3,29.78,NE,35,2.0,6.0,32,0.00,,,0.00,0.0,meteohub,2013-03-05 05:47:00,
2013-03-04 22:52:00,48.6,19.9,29.78,NE,35,0.0,6.0,32,0.00,,,0.00,0.0,meteohub,2013-03-05 05:52:00,
2013-03-04 22:57:00,48.0,20.3,29.78,NE,35,0.0,5.0,33,0.00,,,0.00,0.0,meteohub,2013-03-05 05:57:00,
2013-03-04 23:02:00,48.4,20.7,29.78,NE,34,2.0,3.0,33,0.00,,,0.00,0.0,meteohub,2013-03-05 06:02:00,
2013-03-04 23:07:00,48.6,19.9,29.78,NE,34,2.0,2.0,32,0.00,,,0.00,0.0,meteohub,2013-03-05 06:07:00,
2013-03-04 23:12:00,48.2,20.5,29.78,NNE,31,2.0,2.0,33,0.00,,,0.00,0.0,meteohub,2013-03-05 06:12:00,
2013-03-04 23:17:00,47.7,19.9,29.78,West,273,2.0,4.0,33,0.00,,,0.00,0.0,meteohub,2013-03-05 06:17:00,
2013-03-04 23:22:00,46.9,19.9,29.79,West,271,3.0,5.0,34,0.00,,,0.00,0.0,meteohub,2013-03-05 06:22:00,
2013-03-04 23:27:00,46.6,20.3,29.79,West,275,3.0,5.0,35,0.00,,,0.00,0.0,meteohub,2013-03-05 06:27:00,
2013-03-04 23:32:00,46.0,20.5,29.79,West,272,1.0,5.0,36,0.00,,,0.00,0.0,meteohub,2013-03-05 06:32:00,
2013-03-04 23:37:00,45.7,20.3,29.79,West,272,1.0,5.0,36,0.00,,,0.00,0.0,meteohub,2013-03-05 06:37:00,
2013-03-04 23:42:00,45.5,20.7,29.80,South,191,1.0,5.0,37,0.00,,,0.00,0.0,meteohub,2013-03-05 06:42:00,
2013-03-04 23:47:00,44.8,20.7,29.80,ESE,107,2.0,3.0,38,0.00,,,0.00,0.0,meteohub,2013-03-05 06:47:00,
2013-03-04 23:52:00,44.6,20.5,29.81,ESE,110,0.0,4.0,38,0.00,,,0.00,0.0,meteohub,2013-03-05 06:52:00,
2013-03-04 23:57:00,45.1,20.5,29.81,ESE,110,0.0,4.0,37,0.00,,,0.00,0.0,meteohub,2013-03-05 06:57:00,